Content
SEND FEEDBACK

Daily
Averages
Monthly
Summary
Malaysia

KUALA LUMPUR, MALAYSIA


Home > Asia > Malaysia
Elevation: 72 feet     Latitude: 03 07N     Longitude: 101 33E

WEATHER
 
SELECT A DAY
Number of Records: 123,438;   Date Range: 7/19/98 - 10/20/14
 
SHARE

PRINT THIS DATA

[ ← Previous Day ]
WEATHER ALMANAC - FEBRUARY 12, 2013
[ Next Day → ]
[ °C ]   °F
Weather ElementAverageHighLow
Temperature82.3 °F91.4 °F (1:00 pm)77 °F (11:00 pm)
Dewpoint76 °F78.8 °F (11:00 am)73.4 °F (5:00 am)
Humidity81.9 %94 % (9:00 pm)63 % (1:00 pm)
Barometer29.79 in29.83 in (1:00 am)29.71 in (4:00 pm)
Wind Speed3.9 mph9.2 mph (3:00 pm)
Wind Gust21.9 mph (3:00 pm)
Weather ElementAverage
Visibility5.9 mi
Wind DirectionS (176.8 °)

Weather ElementTotal
Precipitation---
Cooling Degree Days19.2 (Base 65)
Growing Degree Days34.2 (Base 50)
Averaged from 22 records on February 12, 2013
WEATHER CONDITIONS BREAKOUT
WIND DIRECTION BREAKOUT
WEATHER BY HOUR - FEBRUARY 12, 2013
[ °C ]   °F
Local TimeTemperatureDewpointHumidityBarometerVisibilityWind DirectionWind SpeedGust SpeedPrecipitationEventsConditions
1:00 AM80.6 °F77.0 °F89 %29.83 in5.0 miNorth (10°)2.3 mphMostly Cloudy
2:00 AM80.6 °F77.0 °F89 %29.80 in5.0 miNNW (340°)2.3 mphMostly Cloudy
3:00 AM78.8 °F75.2 °F89 %29.80 in5.0 miNNW (340°)3.5 mphMostly Cloudy
4:00 AM78.8 °F75.2 °F89 %29.80 in5.0 miNorth (10°)2.3 mphMostly Cloudy
5:00 AM78.8 °F73.4 °F83 %29.77 in5.0 miNorth (360°)1.2 mphMostly Cloudy
7:00 AM78.8 °F73.4 °F83 %29.77 in5.0 miNorth (10°)1.2 mphMostly Cloudy
8:00 AM78.8 °F75.2 °F89 %29.80 in6.2 miNNE (30°)1.2 mphMostly Cloudy
9:00 AM80.6 °F75.2 °F84 %29.83 in6.2 miNNE (30°)1.2 mphMostly Cloudy
10:00 AM82.4 °F75.2 °F79 %29.83 in6.2 miNNE (20°)3.5 mphMostly Cloudy
11:00 AM86.0 °F78.8 °F79 %29.83 in6.2 miNorth (360°)1.2 mphMostly Cloudy
12:00 PM87.8 °F78.8 °F75 %29.83 in6.2 miNNE (20°)3.5 mphMostly Cloudy
1:00 PM91.4 °F77.0 °F63 %29.80 in6.2 miNNE (30°)4.6 mphMostly Cloudy
2:00 PM91.4 °F77.0 °F63 %29.77 in6.2 miNNE (30°)4.6 mphMostly Cloudy
3:00 PM87.8 °F77.0 °F70 %29.74 in6.2 miNNE (30°)9.2 mph21.9 mphMostly Cloudy
4:00 PM86.0 °F75.2 °F70 %29.71 in6.2 miNorth (350°)8.1 mphThunderstormThunderstorm
5:00 PM84.2 °F77.0 °F79 %29.71 in6.2 miNNW (330°)8.1 mphMostly Cloudy
6:00 PM82.4 °F75.2 °F79 %29.74 in6.2 miNNW (340°)8.1 mphMostly Cloudy
7:00 PM80.6 °F77.0 °F89 %29.77 in6.2 miNorth (350°)8.1 mphMostly Cloudy
8:00 PM80.6 °F75.2 °F84 %29.77 in6.2 miNNE (20°)4.6 mphMostly Cloudy
9:00 PM78.8 °F77.0 °F94 %29.77 in6.2 miNNW (330°)4.6 mphMostly Cloudy
10:00 PM78.8 °F75.2 °F89 %29.80 in6.2 miWest (280°)1.2 mphMostly Cloudy
11:00 PM77.0 °F75.2 °F94 %29.80 in6.2 miWest (270°)1.2 mphMostly Cloudy
Hourly data recorded from WMSA, located miles away from Kuala Lumpur, Malaysia







STORIES FROM OUR PARTNERS